Total_Precipitation_Accumulation
0.94 0.96 0.97 0.88 0.87 0.89 0.96 1.16 1.41 1.20 0.72 0.53 0.54 0.61 0.68 0.78 0.98 0.92 0.87 0.90 0.92 0.97 1.05 1.05 1.04 1.14 1.44 2.04 2.99 4.32 4.96 4.33 3.42 3.10 3.07 3.31 3.64 4.09
0.89 0.95 0.96 0.92 0.89 0.89 0.97 1.03 1.16 1.32 1.05 0.58 0.52 0.57 0.71 0.75 0.84 0.79 0.82 0.94 0.92 0.91 0.94 0.98 1.05 1.09 1.24 1.50 1.99 2.82 4.04 4.71 4.34 3.69 3.34 3.44 3.64 3.90
0.86 0.89 0.89 0.91 0.94 0.91 0.94 0.98 0.99 1.06 1.06 0.63 0.48 0.51 0.69 0.79 0.77 0.73 0.78 0.82 0.83 0.92 0.94 0.96 1.02 1.10 1.26 1.40 1.65 2.09 2.80 3.77 4.43 4.31 3.89 3.66 3.58 3.61
0.84 0.84 0.84 0.84 0.89 0.86 0.86 0.87 0.86 0.83 0.88 0.73 0.51 0.49 0.57 0.67 0.79 0.86 0.83 0.82 0.80 0.88 0.91 0.99 1.09 1.11 1.19 1.33 1.55 1.86 2.23 2.78 3.49 4.01 4.07 3.83 3.59 3.55
0.84 0.86 0.84 0.86 0.89 0.83 0.84 0.81 0.74 0.70 0.74 0.76 0.60 0.53 0.56 0.62 0.79 0.94 0.93 0.91 0.87 0.89 0.92 1.00 1.08 1.14 1.17 1.23 1.41 1.65 1.86 2.09 2.50 3.24 3.79 3.74 3.59 3.46
0.79 0.79 0.83 0.93 0.93 0.92 0.94 0.84 0.77 0.80 0.83 0.89 0.77 0.65 0.67 0.70 0.87 1.08 1.16 1.11 1.06 0.95 0.98 1.01 1.11 1.20 1.18 1.13 1.15 1.25 1.41 1.75 2.11 2.55 3.15 3.53 3.43 3.35
0.75 0.75 0.82 0.96 1.01 1.13 1.23 1.10 1.07 1.15 1.12 1.14 1.05 0.95 0.91 0.95 1.03 1.08 1.23 1.25 1.25 1.12 1.03 0.97 1.00 1.01 1.04 1.08 1.09 1.12 1.19 1.38 1.71 2.08 2.50 2.97 3.27 3.32
0.79 0.75 0.76 0.88 0.92 1.00 1.15 1.22 1.28 1.40 1.45 1.44 1.38 1.27 1.05 0.98 1.03 1.17 1.25 1.42 1.49 1.22 1.14 1.08 1.04 1.11 1.05 1.03 1.14 1.15 1.17 1.27 1.48 1.78 2.11 2.42 2.80 3.19
0.77 0.76 0.75 0.82 0.89 0.88 0.96 0.99 1.01 1.16 1.37 1.49 1.55 1.22 1.05 1.01 1.20 1.40 1.37 1.46 1.43 1.36 1.45 1.40 1.14 1.14 1.07 1.17 1.31 1.23 1.18 1.19 1.28 1.50 1.79 2.05 2.32 2.67
0.71 0.73 0.73 0.75 0.85 1.03 1.02 0.96 0.86 0.89 1.10 1.31 1.54 1.38 1.22 1.25 1.54 1.85 1.95 1.84 1.49 1.32 1.47 1.65 1.27 1.15 1.16 1.24 1.38 1.30 1.17 1.12 1.15 1.32 1.54 1.74 1.96 2.25
0.69 0.68 0.70 0.71 0.90 1.15 1.12 0.98 0.82 0.75 0.86 1.18 1.47 1.60 1.60 1.71 1.92 2.23 2.42 2.25 1.84 1.37 1.35 1.59 1.46 1.30 1.39 1.53 1.57 1.44 1.20 1.12 1.14 1.21 1.31 1.43 1.64 1.94
0.77 0.71 0.79 0.88 1.03 1.17 1.08 1.03 1.10 0.91 0.80 0.85 0.94 1.07 1.16 1.30 1.62 1.90 2.17 2.24 1.94 1.77 1.47 1.54 1.67 1.66 1.87 1.77 1.63 1.40 1.18 1.14 1.15 1.16 1.17 1.23 1.37 1.44
0.82 0.78 0.74 0.94 1.01 1.08 1.13 1.10 1.31 1.23 1.01 1.00 0.96 0.92 0.93 1.05 1.25 1.53 1.89 2.14 2.13 1.88 1.57 1.79 2.07 1.89 1.94 1.81 1.69 1.59 1.25 1.07 1.06 1.13 1.17 1.18 1.24 1.24
0.77 0.68 0.71 0.92 0.99 1.07 1.05 1.12 1.24 1.21 1.05 0.98 0.88 0.84 0.88 0.96 1.07 1.24 1.54 1.77 1.83 1.69 1.46 1.76 2.29 2.09 1.94 1.68 1.61 1.70 1.50 1.24 1.08 1.06 1.07 1.26 1.26 1.19
0.78 0.85 0.91 1.00 1.00 0.92 0.95 1.03 1.03 0.98 1.07 1.06 0.91 0.83 0.87 1.00 1.07 1.11 1.24 1.50 1.66 1.62 1.54 1.61 1.98 2.10 2.08 1.83 1.51 1.55 1.63 1.54 1.27 1.17 1.11 1.09 1.02 0.97
0.94 0.98 1.04 1.02 0.91 0.81 0.82 0.83 0.80 0.88 1.04 1.06 0.94 0.83 0.81 0.90 1.03 1.12 1.21 1.35 1.57 1.61 1.60 1.66 1.91 2.25 2.20 1.76 1.56 1.49 1.44 1.61 1.50 1.32 1.18 1.08 0.95 0.80
1.14 1.20 1.12 1.02 0.95 0.82 0.72 0.65 0.68 0.81 0.94 0.90 0.90 0.88 0.83 0.84 0.91 1.01 1.21 1.34 1.48 1.54 1.63 1.79 1.95 2.13 2.22 2.14 1.95 1.58 1.36 1.33 1.38 1.35 1.28 1.24 1.14 0.93
1.28 1.22 1.00 0.86 0.82 0.77 0.73 0.69 0.65 0.67 0.73 0.80 0.85 0.87 0.87 0.88 0.89 0.91 1.05 1.27 1.42 1.46 1.54 1.68 1.87 2.07 2.26 2.37 2.16 1.75 1.44 1.30 1.36 1.42 1.34 1.35 1.35 1.14
1.14 0.95 0.80 0.73 0.71 0.70 0.68 0.65 0.61 0.57 0.62 0.70 0.74 0.77 0.83 0.87 0.89 0.91 0.96 1.11 1.28 1.41 1.50 1.59 1.73 1.93 2.10 2.26 2.33 1.97 1.65 1.40 1.39 1.57 1.55 1.40 1.34 1.22
0.93 0.84 0.77 0.70 0.67 0.69 0.69 0.67 0.64 0.60 0.63 0.66 0.67 0.68 0.75 0.84 0.87 0.86 0.90 1.02 1.17 1.30 1.39 1.47 1.65 1.86 2.03 1.99 2.08 2.10 1.99 1.68 1.48 1.60 1.69 1.58 1.47 1.42
0.83 0.82 0.79 0.76 0.74 0.74 0.74 0.73 0.71 0.68 0.64 0.65 0.66 0.65 0.66 0.74 0.77 0.75 0.79 0.91 1.06 1.19 1.27 1.28 1.42 1.63 1.85 1.90 1.83 1.79 1.97 2.00 1.69 1.64 1.72 1.78 1.73 1.63
0.77 0.82 0.82 0.82 0.82 0.82 0.81 0.80 0.77 0.72 0.68 0.67 0.65 0.63 0.62 0.66 0.70 0.70 0.75 0.82 0.88 0.99 1.13 1.21 1.31 1.54 1.82 1.99 1.90 1.76 1.82 1.98 2.02 1.83 1.73 1.76 1.90 1.89
0.87 0.86 0.85 0.85 0.85 0.86 0.86 0.82 0.77 0.71 0.65 0.64 0.63 0.62 0.63 0.65 0.65 0.68 0.72 0.76 0.83 0.89 1.00 1.16 1.29 1.45 1.67 1.86 1.96 1.88 1.76 1.79 1.88 1.92 2.03 1.83 1.48 1.30